Meteo Giornale » Osservazioni meteo Italia » Pisa-S Giusto

ore: 16:15 - Osservazioni Meteo Pisa-S Giusto
Lat. 43° 41' N Lon. 10° 23' E Alt. 2 metri s.l.m.

poco_nuvoloso Europe/Rome

19 °C

Poco Nuvoloso

Temp. 24 Ore

11 °C

20 °C

Est/Sud-Est

14.8 Km/h

Dew point 14 °C

Umidità 72 %

Visibilità  10 Km

Il sole sorge alle ore 07:10

Il sole tramonta alle ore 16:55

Data e Ora Cielo e Fenomeni T °C DP °C Um. % Pres. hPa Vis. km Vento km/h
Oggi h: 16:15 poco_nuvoloso Poco Nuvoloso 19 14 72 1026 10 E/SE 14.8
Oggi h: 15:45 poco_nuvoloso Poco Nuvoloso 19 14 72 1026 10 E/SE 14.8
Oggi h: 15:15 poco_nuvoloso Poco Nuvoloso 19 14 72 1026 10 E/SE 14.8
Oggi h: 14:45 poco_nuvoloso Poco Nuvoloso 19 14 72 1026 10 E/SE 14.8
Oggi h: 14:15 poco_nuvoloso Poco Nuvoloso 20 14 68 1026 10 E/SE 13
Oggi h: 13:45 poco_nuvoloso Poco Nuvoloso 19 15 77 1027 10 SE 9.3
Oggi h: 13:15 poco_nuvoloso Poco Nuvoloso 19 15 77 1027 10 SE 7.4
Oggi h: 12:45 poco_nuvoloso Poco Nuvoloso 18 15 82 1027 10 SE 9.3
Oggi h: 12:15 nuvoloso Nuvoloso 18 14 77 1028 10 S/SE 9.3
Oggi h: 11:45 molto_nuvoloso Molto Nuvoloso 17 15 88 1028 10 N 5.5
Oggi h: 11:15 molto_nuvoloso Molto Nuvoloso 16 15 93 1028 10 E/SE 7.4
Oggi h: 10:45 molto_nuvoloso Molto Nuvoloso 15 15 100 1028 10 E/SE 7.4
Oggi h: 10:15 molto_nuvoloso Molto Nuvoloso 14 14 100 1028 10 S/SE 7.4
Oggi h: 09:45 molto_nuvoloso Molto Nuvoloso 14 14 100 1028 10 SE 9.3
Oggi h: 09:15 molto_nuvoloso Molto Nuvoloso 13 13 100 1028 10 E/SE 9.3
Oggi h: 08:45 molto_nuvoloso Molto Nuvoloso 12 12 100 1028 10 E/SE 9.3
Oggi h: 08:15 molto_nuvoloso Molto Nuvoloso 12 12 100 1028 10 E/SE 9.3
Oggi h: 07:45 molto_nuvoloso Molto Nuvoloso 12 12 100 1028 8 SE 9.3
Oggi h: 07:15 molto_nuvoloso Molto Nuvoloso 12 12 100 1027 10 E/SE 9.3
Oggi h: 06:45 molto_nuvoloso Molto Nuvoloso 12 12 100 1027 10 E/SE 11.1
Oggi h: 06:15 nuvoloso Nuvoloso 12 12 100 1028 10 S/SE 7.4
Oggi h: 05:45 nuvoloso Nuvoloso 12 12 100 1028 10 S/SE 7.4
Oggi h: 05:15 nuvoloso Nuvoloso 12 12 100 1028 7 N 5.5
Oggi h: 04:45 nuvoloso Nuvoloso 12 12 100 1028 7 N 5.5
Oggi h: 04:15 nuvoloso Nuvoloso 11 11 100 1028 7 N 5.5
Oggi h: 03:45 nuvoloso Nuvoloso 11 11 100 1028 7 N 3.7
Oggi h: 03:15 foschia Foschia 11 11 100 1028 5 E/SE 7.4
Oggi h: 02:45 foschia Foschia 11 11 100 1028 5 E/SE 9.3
Oggi h: 02:15 nebbia Banco di Nebbia Foschia 12 12 100 1028 0.8 N 3.7
Oggi h: 01:45 nebbia Banco di Nebbia Foschia 12 12 100 1028 0.8 N 3.7
Oggi h: 01:15 poco_nuvoloso Poco Nuvoloso 12 12 100 1028 8 E 9.3
Oggi h: 00:45 poco_nuvoloso Poco Nuvoloso 12 12 100 1028 8 E 9.3
Oggi h: 00:15 poco_nuvoloso Poco Nuvoloso 12 12 100 1029 10 E 7.4
Ieri h: 23:45 poco_nuvoloso Poco Nuvoloso 12 12 100 1029 10 N 5.5
Ieri h: 23:15 poco_nuvoloso Poco Nuvoloso 12 12 100 1029 10 E/SE 7.4
Ieri h: 22:45 nebbia Nebbia a Strati 12 12 100 1029 8 N 5.5
Ieri h: 22:15 nebbia Nebbia a Strati 12 12 100 1029 8 SE 9.3
Ieri h: 21:45 nebbia Nebbia a Strati 12 12 100 1028 8 SE 9.3
Ieri h: 21:15 nebbia Nebbia a Strati 12 12 100 1028 8 E/SE 7.4
Ieri h: 20:45 nebbia Nebbia a Strati 13 13 100 1028 10 SE 7.4
Ieri h: 20:15 nebbia Nebbia a Strati 13 13 100 1028 10 SE 7.4
Ieri h: 19:45 nebbia Nebbia a Strati 13 13 100 1028 10 S/SE 7.4
Ieri h: 19:15 poco_nuvoloso Poco Nuvoloso 14 14 100 1028 10 N 5.5
Ieri h: 18:45 poco_nuvoloso Poco Nuvoloso 15 14 93 1028 10 N 5.5
Ieri h: 18:15 poco_nuvoloso Poco Nuvoloso 15 15 100 1028 10 N 3.7
Ieri h: 17:45 poco_nuvoloso Poco Nuvoloso 16 15 93 1028 10 N 3.7
Ieri h: 17:15 poco_nuvoloso Poco Nuvoloso 16 14 87 1028 10 E 7.4
Ieri h: 16:45 poco_nuvoloso Poco Nuvoloso 17 15 88 1028 10 SE 7.4